ZL4ND Weather Reports


time (UTC)temp
C
wind
direction
speed
KPH
gust
KPH
rain 1hr
cm
rain 24hr
cm
rain mn
cm
humidity
%
barometer
mb
20260506073517 17 254 8.0 17.7 0.00 0.00 0.00 81 1024.6
20260506072517 17 249 8.0 20.9 0.00 0.00 0.00 81 1024.5
20260506071516 17 259 8.0 20.9 0.00 0.00 0.00 80 1024.5
20260506070518 17 249 8.0 17.7 0.00 0.00 0.00 79 1024.5
20260506061517 17 256 8.0 22.5 0.00 0.00 0.00 79 1023.9
20260506060517 17 256 9.7 22.5 0.00 0.00 0.00 80 1023.8
20260506050518 17 254 9.7 35.4 0.00 0.00 0.00 77 1023.5
20260506044657 17 254 9.7 35.4 0.00 0.00 0.00 78 1023.2
20260506042518 17 258 9.7 35.4 0.00 0.00 0.00 79 1023.5
20260506041517 17 257 8.0 24.1 0.00 0.00 0.00 78 1023.9
20260506040537 17 285 6.4 22.5 0.00 0.00 0.00 78 1024.0
20260506035516 17 242 4.8 12.9 0.00 0.00 0.00 77 1024.3
20260506034538 17 213 6.4 27.4 0.00 0.00 0.00 77 1024.5
20260506033517 17 262 6.4 17.7 0.00 0.00 0.00 77 1024.7
20260506032516 17 249 6.4 19.3 0.00 0.00 0.00 77 1024.8
20260506031516 17 256 8.0 16.1 0.00 0.00 0.00 77 1024.9
20260506030518 17 32 8.0 25.7 0.00 0.00 0.00 76 1024.7
20260506025517 17 247 8.0 24.1 0.00 0.00 0.00 77 1024.8
20260506024517 17 252 6.4 14.5 0.00 0.00 0.00 77 1024.7
20260506023516 17 267 6.4 17.7 0.00 0.00 0.00 77 1024.5
20260506022538 18 252 6.4 20.9 0.00 0.00 0.00 76 1024.5
20260506021517 18 259 6.4 17.7 0.00 0.00 0.00 75 1024.8
20260506020517 18 337 6.4 14.5 0.00 0.00 0.00 75 1024.7
20260506015516 18 283 8.0 17.7 0.00 0.00 0.00 75 1024.8
20260506014517 18 239 8.0 20.9 0.00 0.00 0.00 74 1024.8
20260506013517 18 242 11.3 35.4 0.00 0.00 0.00 73 1025.1
20260506012517 18 248 8.0 22.5 0.00 0.00 0.00 74 1025.3
20260506011516 18 227 8.0 32.2 0.00 0.00 0.00 73 1025.3
20260506010517 18 213 8.0 29.0 0.00 0.00 0.00 73 1025.3
20260506005517 18 239 8.0 35.4 0.00 0.00 0.00 74 1025.7
20260506004537 18 258 3.2 9.7 0.00 0.00 0.00 75 1025.8
20260506003516 18 30 9.7 32.2 0.00 0.00 0.00 74 1026.1
20260506002518 17 275 3.2 9.7 0.00 0.00 0.00 75 1026.1
20260506001517 17 225 11.3 35.4 0.00 0.00 0.00 75 1026.1
20260506000517 17 228 9.7 25.7 0.00 0.00 0.00 76 1026.3
20260505235516 17 185 8.0 27.4 0.00 0.00 0.00 76 1026.4
20260505234518 17 165 6.4 25.7 0.00 0.00 0.00 77 1026.4
20260505233517 17 260 8.0 19.3 0.00 0.00 0.00 77 1026.1
20260505232516 17 285 6.4 16.1 0.00 0.00 0.00 78 1026.6
20260505231516 17 259 6.4 25.7 0.00 0.00 0.00 78 1026.6
20260505230538 17 254 6.4 19.3 0.00 0.00 0.00 78 1026.9
20260505225517 17 91 11.3 25.7 0.00 0.00 0.00 78 1026.9
20260505224516 17 274 6.4 22.5 0.00 0.00 0.00 78 1026.8
20260505222517 17 125 6.4 19.3 0.00 0.00 0.00 78 1026.8
20260505221517 17 176 8.0 20.9 0.00 0.00 0.00 79 1026.7
20260505220536 16 118 6.4 14.5 0.00 0.00 0.00 81 1026.8
20260505215518 16 65 4.8 20.9 0.00 0.00 0.00 81 1026.9
20260505212516 16 242 4.8 14.5 0.00 0.00 0.00 80 1027.2
20260505211518 16 147 6.4 14.5 0.00 0.00 0.00 80 1027.0
20260505210658 16 210 4.8 12.9 0.00 0.00 0.00 79 1027.1
20260505205517 16 109 4.8 16.1 0.00 0.00 0.00 80 1027.1
20260505204516 16 164 4.8 11.3 0.00 0.00 0.00 80 1027.3
20260505203518 16 198 6.4 14.5 0.00 0.00 0.00 80 1027.3
20260505202517 16 117 3.2 8.0 0.00 0.00 0.00 80 1027.2
20260505201517 16 251 3.2 12.9 0.00 0.00 0.00 81 1027.1
20260505200536 16 248 6.4 17.7 0.00 0.00 0.00 79 1026.9
20260505195518 16 197 8.0 22.5 0.00 0.00 0.00 78 1027.1
20260505194517 16 226 4.8 9.7 0.00 0.00 0.00 77 1027.0
20260505193517 16 232 8.0 17.7 0.00 0.00 0.00 77 1026.9
20260505192517 16 230 6.4 17.7 0.00 0.00 0.00 77 1027.0
20260505191518 16 260 4.8 14.5 0.00 0.00 0.00 77 1026.9
20260505190537 16 146 8.0 25.7 0.00 0.00 0.00 78 1026.7
20260505185517 16 116 4.8 9.7 0.00 0.00 0.00 77 1026.9
20260505184516 16 257 3.2 9.7 0.00 0.00 0.00 78 1027.1
20260505183518 16 240 3.2 9.7 0.00 0.00 0.00 77 1026.9
20260505182537 16 248 6.4 17.7 0.00 0.00 0.00 77 1027.2
20260505181516 16 254 6.4 14.5 0.00 0.00 0.00 76 1027.3
20260505180516 16 271 8.0 29.0 0.00 0.00 0.00 75 1027.4
20260505175517 16 65 3.2 9.7 0.00 0.00 0.00 75 1027.2
20260505174517 16 213 8.0 19.3 0.00 0.00 0.00 75 1027.3
20260505173536 15 346 6.4 14.5 0.00 0.00 0.00 76 1027.5
20260505172518 15 278 4.8 17.7 0.00 0.00 0.00 76 1027.4
20260505171517 15 139 6.4 16.1 0.00 0.00 0.00 75 1027.4
20260505170517 16 208 4.8 11.3 0.00 0.00 0.00 74 1027.5
20260505165518 16 211 6.4 32.2 0.00 0.00 0.00 74 1027.4
20260505164518 15 243 4.8 14.5 0.00 0.00 0.00 74 1027.6
20260505163517 16 232 4.8 12.9 0.00 0.00 0.00 73 1027.5
20260505162516 15 157 4.8 14.5 0.00 0.00 0.00 73 1027.7
20260505161518 16 103 3.2 24.1 0.00 0.00 0.00 72 1027.7
20260505160517 16 234 6.4 19.3 0.00 0.00 0.00 71 1027.7
20260505152517 16 238 4.8 12.9 0.00 0.00 0.00 70 1027.7
20260505151516 16 231 4.8 11.3 0.00 0.00 0.00 70 1028.0
20260505150516 16 221 6.4 25.7 0.00 0.00 0.00 69 1028.0
20260505140516 16 253 6.4 19.3 0.00 0.00 0.00 69 1028.7
20260505124518 16 240 6.4 27.4 0.00 0.00 0.00 67 1029.2
20260505123518 16 232 4.8 17.7 0.00 0.00 0.00 66 1029.2
20260505122517 16 266 6.4 12.9 0.00 0.00 0.00 66 1029.1
20260505121516 15 137 6.4 20.9 0.00 0.00 0.00 67 1029.1
20260505120518 15 165 6.4 14.5 0.00 0.00 0.00 67 1029.2
20260505115517 15 187 4.8 9.7 0.00 0.00 0.00 66 1029.2
20260505114517 15 187 6.4 24.1 0.00 0.00 0.00 65 1029.2
20260505113516 15 201 4.8 16.1 0.00 0.00 0.00 65 1029.3
20260505112517 15 226 3.2 9.7 0.00 0.00 0.00 65 1029.3
20260505111657 15 9 4.8 9.7 0.00 0.00 0.00 64 1029.5
20260505110517 15 213 6.4 20.9 0.00 0.00 0.00 64 1029.6
20260505101517 15 227 6.4 27.4 0.00 0.00 0.00 64 1029.8
20260505100517 15 265 4.8 24.1 0.00 0.00 0.00 64 1029.7
20260505095517 15 243 6.4 20.9 0.00 0.00 0.00 65 1029.8
20260505094518 15 239 6.4 19.3 0.00 0.00 0.00 64 1029.8
20260505093538 15 235 6.4 17.7 0.00 0.00 0.00 64 1029.8
20260505092517 15 247 6.4 16.1 0.00 0.00 0.00 65 1029.8
20260505091536 15 248 6.4 20.9 0.00 0.00 0.00 65 1029.7
20260505090518 15 240 6.4 24.1 0.00 0.00 0.00 66 1029.4
20260505085517 15 234 6.4 22.5 0.00 0.00 0.00 66 1029.5
20260505084537 15 245 6.4 25.7 0.00 0.00 0.00 66 1029.7
20260505083516 15 254 6.4 22.5 0.00 0.00 0.00 66 1029.9
20260505082517 15 268 6.4 25.7 0.00 0.00 0.00 66 1029.9
20260505081517 15 6.4 20.9 0.00 0.00 0.00 66 1029.9
20260505080516 15 67 4.8 14.5 0.00 0.00 0.00 66 1029.9
20260505075518 15 211 6.4 24.1 0.00 0.00 0.00 65 1030.0